time_stamp(utc),avg(mph),gust(mph),direction(deg),12m_air_temp(f),sonic_u(cm/s),sonic_v(cm/s),sonic_w(cm/s),pressure,2m_air_temp(f),pyranometer(W/m^2)
"2021-06-22 00:02:39+00",14.0,17.0,,71.4,-303,-580,-43,1003.98,71.1,0
"2021-06-22 00:07:39+00",15.0,17.0,,71.8,-290,-603,-5,1004.04,71.4,0
"2021-06-22 00:12:39+00",13.9,14.9,,71.7,-253,-562,-9,1004.13,71.4,0
"2021-06-22 00:17:39+00",12.8,14.8,,71.7,-262,-517,-4,1004.2,71.4,0
"2021-06-22 00:22:39+00",11.3,12.3,,71.8,-268,-438,4,1004.18,71.4,0
"2021-06-22 00:27:39+00",10.2,11.2,,71.8,-337,-434,-25,1004.15,71.4,0
"2021-06-22 00:32:39+00",11.1,13.1,,72,-404,-424,-30,1004.19,71.5,0
"2021-06-22 00:37:39+00",13.7,16.7,,72.2,-512,-468,-30,1004.56,71.6,0
"2021-06-22 00:42:39+00",18.5,22.5,,72.2,-664,-532,-27,1004.8,71.7,0
"2021-06-22 00:47:39+00",20.2,23.2,,72.7,-858,-467,-12,1005.02,72.1,0
"2021-06-22 00:52:39+00",18.2,22.2,,73.2,-760,-447,-9,1004.81,72.3,0
"2021-06-22 00:57:39+00",26.5,31.5,,75.8,-1132,-336,-28,1004.51,72.7,0
"2021-06-22 01:02:39+00",20.8,26.8,,76.3,-926,-153,-15,1004.63,73.6,0
"2021-06-22 01:07:39+00",17.3,19.3,,76.5,-772,-65,-22,1004.5,74.2,0
"2021-06-22 01:12:39+00",18.3,22.3,,76.2,-845,-3,-21,1004.68,74.5,0
"2021-06-22 01:17:39+00",18.8,21.8,,76.1,-881,31,-10,1004.65,74.6,0
"2021-06-22 01:22:39+00",20.1,25.1,,75.9,-920,-19,-8,1004.82,74.7,0
"2021-06-22 01:27:39+00",17.4,20.4,,75.8,-793,-38,2,1004.85,74.8,0
"2021-06-22 01:32:39+00",15.3,17.3,,75.4,-693,-30,-20,1004.97,74.5,0
"2021-06-22 01:37:39+00",18.2,20.2,,75.3,-827,95,-35,1004.77,74.3,0
"2021-06-22 01:42:39+00",13.4,14.4,,75.1,-590,95,-15,1004.56,74.2,0
"2021-06-22 01:47:39+00",10.6,11.6,,75.1,-424,207,-29,1004.32,74,0
"2021-06-22 01:52:39+00",16.1,18.1,,75.3,-693,205,-11,1004.56,74,0
"2021-06-22 01:57:39+00",11.9,12.9,,75.6,-516,162,-17,1004.72,74.2,0
"2021-06-22 02:02:39+00",9.7,10.7,,75.2,-347,253,-29,1004.6,74.1,0
"2021-06-22 02:07:39+00",7.8,8.8,,75.1,-187,248,-47,1004.23,74,0
"2021-06-22 02:12:39+00",8.1,10.1,,75.2,-252,216,-48,1004.32,74,0
"2021-06-22 02:17:39+00",5.8,6.8,,75,-222,41,-41,1004.26,73.9,0
"2021-06-22 02:22:39+00",7.2,8.2,,74.8,-284,-50,-50,1004.47,73.8,0
"2021-06-22 02:27:39+00",8.3,9.3,,74.8,-327,-50,-57,1004.54,73.6,0
"2021-06-22 02:32:39+00",8.0,8.0,,74.8,-294,-33,-67,1004.73,73.4,0
"2021-06-22 02:37:39+00",7.6,8.6,,74.7,-263,-205,-49,1004.78,73.2,0
"2021-06-22 02:42:39+00",9.0,10.0,,74.1,-257,-295,-55,1004.68,73,0
"2021-06-22 02:47:39+00",10.8,11.8,,74.1,-301,-339,-64,1004.77,72.9,0
"2021-06-22 02:52:39+00",12.6,13.6,,73.9,-421,-370,-69,1005.05,72.7,0
"2021-06-22 02:57:39+00",11.1,12.1,,73.9,-430,-290,-64,1005.07,72.8,0
"2021-06-22 03:02:39+00",11.6,13.6,,74.1,-453,-294,-54,1005.21,72.8,0
"2021-06-22 03:07:39+00",14.0,18.0,,74.5,-560,-351,-51,1005.11,73,0
"2021-06-22 03:12:39+00",16.2,20.2,,74.9,-676,-284,-46,1004.97,73.2,0
"2021-06-22 03:17:39+00",17.2,22.2,,74.8,-719,-272,-28,1005.16,73.4,0
"2021-06-22 03:22:39+00",15.5,17.5,,74.5,-615,-421,-47,1005.15,73.3,0
"2021-06-22 03:27:39+00",17.3,20.3,,74.1,-616,-501,-24,1004.95,73.1,0
"2021-06-22 03:32:39+00",13.7,15.7,,73.7,-477,-406,-12,1004.73,72.8,0
"2021-06-22 03:37:39+00",13.5,17.5,,73.6,-385,-486,-29,1004.37,72.5,0
"2021-06-22 03:42:39+00",11.6,14.6,,73.1,-300,-464,-52,1004.07,72.3,0
"2021-06-22 03:47:39+00",7.0,9.0,,72.8,-144,-292,-54,1003.82,72.1,0
"2021-06-22 03:52:39+00",8.7,9.7,,72.6,-217,-404,-67,1003.66,72,0
"2021-06-22 03:57:39+00",8.9,9.9,,72.5,-213,-433,-86,1003.54,71.8,0
"2021-06-22 04:02:39+00",9.1,11.1,,72.3,-242,-414,-85,1003.53,71.7,0
"2021-06-22 04:07:39+00",9.1,12.1,,72.3,-242,-369,-39,1003.53,71.6,0
"2021-06-22 04:12:39+00",9.7,11.7,,72.1,-166,-471,-88,1003.64,71.6,0
"2021-06-22 04:17:39+00",11.0,14.0,,72,-270,-544,-39,1003.78,71.5,0
"2021-06-22 04:22:39+00",11.8,13.8,,72.2,-336,-484,-26,1003.96,71.5,0
"2021-06-22 04:27:39+00",14.0,17.0,,72.4,-441,-424,-29,1004.12,71.6,0
"2021-06-22 04:32:39+00",10.5,11.5,,72.7,-428,-200,-19,1004.43,71.8,0
"2021-06-22 04:37:39+00",9.8,11.8,,72.7,-416,-28,-42,1004.44,72,0
"2021-06-22 04:42:39+00",9.8,10.8,,72.8,-395,-127,-35,1004.52,72.1,0
"2021-06-22 04:47:39+00",12.2,14.2,,72.7,-377,-351,-47,1004.29,72.1,0
"2021-06-22 04:52:39+00",11.8,14.8,,72.5,-409,-303,-42,1004.27,72.1,0
"2021-06-22 04:57:39+00",14.7,16.7,,72.5,-509,-404,-32,1004.66,72,0
"2021-06-22 05:02:39+00",28.9,33.9,,72.8,-1261,-222,13,1006.3,72.2,0
"2021-06-22 05:07:39+00",44.3,53.3,,70,-449,-2089,1622,1006.39,71.4,0
"2021-06-22 05:12:39+00",32.3,37.3,,69,-1110,-3,378,1006.18,69.8,0
"2021-06-22 05:17:39+00",28.4,33.4,,69.4,-1165,718,-5,1005.32,69.3,0
"2021-06-22 05:22:39+00",22.0,26.0,,69.7,-893,457,7,1004.82,68.7,0
"2021-06-22 05:27:39+00",18.4,21.4,,70.4,-837,84,-3,1005.23,68.6,0
"2021-06-22 05:32:39+00",12.2,16.2,,70.4,-493,-141,-22,1004.79,68.6,0
"2021-06-22 05:37:39+00",8.0,9.0,,70.3,-310,-100,-41,1004.23,68.8,0
"2021-06-22 05:42:39+00",7.9,9.9,,70.3,-266,-297,-56,1004.58,68.7,0
"2021-06-22 05:47:39+00",7.3,8.3,,70.2,-233,-165,-54,1004.39,68.6,0
"2021-06-22 05:52:39+00",7.7,8.7,,70.4,-221,-241,-67,1004.74,68.6,0
"2021-06-22 05:57:39+00",5.8,6.8,,70.4,-26,-225,-56,1004.47,68.7,0
"2021-06-22 06:02:39+00",5.6,6.6,,70.5,-106,-239,-77,1004.31,68.6,0
"2021-06-22 06:07:39+00",5.4,6.4,,70.6,-135,-224,-68,1004.27,68.7,0
"2021-06-22 06:12:39+00",6.5,7.5,,70.5,7,-255,-61,1004.2,68.7,0
"2021-06-22 06:17:39+00",6.5,7.5,,70.4,14,-249,-55,1004.23,68.8,0
"2021-06-22 06:22:39+00",6.3,8.3,,70.2,-21,-251,-61,1004.15,68.8,0
"2021-06-22 06:27:39+00",5.3,8.3,,70.2,0,-212,-45,1004.2,68.9,0
"2021-06-22 06:32:39+00",6.3,8.3,,70.2,58,-241,-51,1004.25,69,0
"2021-06-22 06:37:39+00",4.6,5.6,,70,-27,-177,-49,1004.23,68.9,0
"2021-06-22 06:42:39+00",3.5,4.5,,70.1,15,-125,-24,1004.35,68.9,0
"2021-06-22 06:47:39+00",7.2,8.2,,69.9,110,-271,-61,1004.19,68.9,0
"2021-06-22 06:52:39+00",5.4,6.4,,69.7,-3,-210,-52,1004.01,68.7,0
"2021-06-22 06:57:39+00",6.7,7.7,,69.8,-16,-265,-66,1004.14,68.7,0
"2021-06-22 07:02:39+00",6.3,7.3,,69.9,0,-246,-60,1003.91,68.8,0
"2021-06-22 07:07:39+00",7.3,9.3,,69.8,14,-275,-53,1003.99,68.7,0
"2021-06-22 07:12:39+00",5.1,6.1,,69.7,-81,-208,-57,1004.16,68.6,0
"2021-06-22 07:17:39+00",5.3,6.3,,69.7,-138,-207,-67,1004.19,68.6,0
"2021-06-22 07:22:39+00",6.0,7.0,,69.8,-156,-231,-71,1004.2,68.6,0
"2021-06-22 07:27:39+00",6.2,7.2,,69.8,-150,-260,-75,1004.26,68.6,0
"2021-06-22 07:32:39+00",5.7,6.7,,69.8,-162,-230,-46,1004.31,68.7,0
"2021-06-22 07:37:39+00",5.2,6.2,,69.9,-113,-223,-65,1004.44,68.7,0
"2021-06-22 07:42:39+00",5.1,6.1,,69.8,-78,-210,-57,1004.42,68.7,0
"2021-06-22 07:47:39+00",5.1,6.1,,69.6,-100,-222,-70,1004.32,68.7,0
"2021-06-22 07:52:39+00",5.8,7.8,,69.6,-170,-229,-69,1004.28,68.6,0
"2021-06-22 07:57:39+00",5.9,6.9,,69.9,-148,-268,-82,1004.28,68.6,0
"2021-06-22 08:02:39+00",7.8,8.8,,69.8,-82,-313,-84,1004.27,68.6,0
"2021-06-22 08:07:39+00",5.6,6.6,,69.9,-118,-261,-73,1004.3,68.7,0
"2021-06-22 08:12:39+00",6.3,7.3,,70,-183,-195,-64,1004.32,68.6,0
"2021-06-22 08:17:39+00",5.0,6.0,,70.1,-127,-120,-47,1004.13,68.7,0
"2021-06-22 08:22:39+00",5.3,6.3,,70.3,-165,-86,-63,1004.18,68.7,0
"2021-06-22 08:27:39+00",5.8,5.8,,70.6,-166,-105,-67,1004.12,68.7,0
"2021-06-22 08:32:39+00",6.7,6.7,,70.8,-216,-83,-64,1004.15,68.8,0
"2021-06-22 08:37:39+00",6.0,7.0,,71.1,-204,-98,-63,1004.11,68.8,0
"2021-06-22 08:42:39+00",5.6,6.6,,71.1,-161,-109,-63,1004.14,68.9,0
"2021-06-22 08:47:39+00",5.9,6.9,,70.9,-150,-125,-70,1004.19,68.9,0
"2021-06-22 08:52:39+00",7.3,8.3,,71,-222,-200,-33,1004.18,68.9,0
"2021-06-22 08:57:39+00",7.1,7.1,,71.1,-207,-168,-55,1004.2,68.9,0
"2021-06-22 09:02:39+00",7.3,7.3,,71.1,-220,-174,-53,1004.26,68.9,0
"2021-06-22 09:07:39+00",6.4,7.4,,71.1,-178,-173,-54,1004.32,69,0
"2021-06-22 09:12:39+00",6.1,6.1,,71,-196,-174,5,1004.49,69,0
"2021-06-22 09:17:39+00",7.7,7.7,,71.1,-237,-229,0,1004.55,69,0
"2021-06-22 09:22:39+00",7.4,8.4,,71.1,-232,-218,2,1004.51,69.1,0
"2021-06-22 09:27:39+00",6.4,7.4,,70.8,-197,-188,3,1004.65,69,0
"2021-06-22 09:32:39+00",5.3,6.3,,70.7,-167,-151,5,1004.6,69,0
"2021-06-22 09:37:39+00",5.6,6.6,,70.7,-172,-169,-4,1004.54,69,0
"2021-06-22 09:42:39+00",5.6,6.6,,70.7,-213,-143,2,1004.56,69,0
"2021-06-22 09:47:39+00",5.9,6.9,,70.7,-192,-163,0,1004.53,68.9,0
"2021-06-22 09:52:39+00",6.2,7.2,,70.7,-182,-205,0,1004.53,68.9,0
"2021-06-22 09:57:39+00",6.3,6.3,,70.9,-198,-185,-1,1004.5,69,0
"2021-06-22 10:02:39+00",4.6,5.6,,70.8,-175,-112,1,1004.51,69.1,0
"2021-06-22 10:07:39+00",4.0,5.0,,70.7,-166,-90,-2,1004.49,69.1,0
"2021-06-22 10:12:39+00",3.4,4.4,,70.6,-136,-68,1,1004.45,69.1,0
"2021-06-22 10:17:39+00",3.8,3.8,,70.6,-156,-22,1,1004.73,69.1,0
"2021-06-22 10:22:39+00",4.4,4.4,,70.6,-185,-36,-4,1004.69,69.2,0
"2021-06-22 10:27:39+00",4.2,5.2,,70.7,-175,-18,-3,1004.88,69.3,0
"2021-06-22 10:32:39+00",4.2,5.2,,70.8,-155,-77,-2,1004.87,69.5,0
"2021-06-22 10:37:39+00",4.9,5.9,,70.9,-166,-128,1,1004.89,69.7,0
"2021-06-22 10:42:39+00",4.5,5.5,,71.1,-174,-103,2,1004.92,70,0
"2021-06-22 10:47:39+00",5.2,5.2,,71.1,-206,-132,8,1005.04,70.2,0
"2021-06-22 10:52:39+00",5.0,7.0,,71.2,-204,-84,0,1005.11,70.3,0
"2021-06-22 10:57:39+00",6.4,8.4,,71.3,-268,-68,10,1005.2,70.4,0
"2021-06-22 11:02:39+00",5.1,6.1,,71.5,-211,-48,23,1005.09,70.7,0
"2021-06-22 11:07:39+00",6.2,7.2,,71.6,-267,-35,4,1005.08,70.7,0
"2021-06-22 11:12:39+00",6.1,7.1,,71.7,-267,-22,18,1005.06,70.7,0
"2021-06-22 11:17:39+00",8.0,9.0,,71.9,-353,-5,3,1005.05,70.7,0
"2021-06-22 11:22:39+00",6.7,7.7,,72,-293,-16,28,1005.07,70.7,0
"2021-06-22 11:27:39+00",7.0,8.0,,72.1,-310,13,20,1005.01,70.8,0
"2021-06-22 11:32:39+00",6.4,7.4,,72.1,-280,-13,6,1005.02,71,0
"2021-06-22 11:37:39+00",5.4,6.4,,72.2,-242,28,18,1004.95,71.2,0
"2021-06-22 11:42:39+00",4.1,5.1,,72.2,-173,23,13,1005.02,71.3,0
"2021-06-22 11:47:39+00",5.8,5.8,,72.4,-255,59,12,1005.24,71.5,0
"2021-06-22 11:52:39+00",4.9,5.9,,72.6,-217,27,5,1005.13,71.7,0
"2021-06-22 11:57:39+00",6.3,7.3,,73,-274,-2,6,1005.15,72,0
"2021-06-22 12:02:39+00",7.8,8.8,,73.4,-341,40,9,1005.15,72.1,0
"2021-06-22 12:07:39+00",6.9,7.9,,73.6,-311,11,16,1005.06,72.3,0
"2021-06-22 12:12:39+00",6.9,7.9,,73.8,-295,-44,24,1005.09,72.7,0
"2021-06-22 12:17:39+00",7.0,7.0,,74,-305,-20,24,1005.09,73.1,0
"2021-06-22 12:22:39+00",6.3,8.3,,74.2,-261,-145,15,1005.06,73.4,0
"2021-06-22 12:27:39+00",7.6,8.6,,74.3,-324,-65,-12,1005.11,73.7,0
"2021-06-22 12:32:39+00",7.2,8.2,,74.5,-295,-84,41,1005.22,74,0
"2021-06-22 12:37:39+00",6.6,7.6,,74.7,-285,-14,35,1005.29,74.3,0
"2021-06-22 12:42:39+00",7.5,8.5,,74.8,-334,65,14,1005.25,74.6,0
"2021-06-22 12:47:39+00",6.5,7.5,,75,-281,31,-13,1005.19,75.1,0
"2021-06-22 12:52:39+00",7.0,8.0,,75.5,-307,6,45,1005.08,75.6,0
"2021-06-22 12:57:39+00",8.4,9.4,,75.8,-382,30,3,1005.25,75.6,0
"2021-06-22 13:02:39+00",7.3,8.3,,75.9,-323,39,-6,1005.19,75.6,0
"2021-06-22 13:07:39+00",8.0,9.0,,76.1,-354,50,5,1005.25,75.7,0
"2021-06-22 13:12:39+00",8.1,9.1,,76.2,-364,72,16,1005.35,75.9,0
"2021-06-22 13:17:39+00",7.9,8.9,,76.4,-349,88,5,1005.28,76.3,0
"2021-06-22 13:22:39+00",7.9,8.9,,76.5,-354,57,21,1005.23,76.5,0
"2021-06-22 13:27:39+00",7.4,8.4,,76.4,-334,24,6,1005.26,76.5,0
"2021-06-22 13:32:39+00",6.6,7.6,,76.4,-292,48,10,1005.21,76.3,0
"2021-06-22 13:37:39+00",6.7,6.7,,76.5,-302,55,10,1005.16,76.5,0
"2021-06-22 13:42:39+00",7.9,8.9,,76.7,-353,-1,15,1005.32,76.9,0
"2021-06-22 13:47:39+00",7.9,8.9,,76.7,-352,34,18,1005.37,76.8,0
"2021-06-22 13:52:39+00",7.2,8.2,,76.7,-281,136,17,1005.2,76.8,0
"2021-06-22 13:57:39+00",7.4,8.4,,76.9,-338,70,29,1005.3,77,0
"2021-06-22 14:02:39+00",7.5,8.5,,77,-305,132,60,1005.26,77.3,0
"2021-06-22 14:07:39+00",8.9,9.9,,77.1,-376,118,15,1005.3,77.6,0
"2021-06-22 14:12:39+00",7.8,8.8,,77,-347,110,54,1005.27,77.5,0
"2021-06-22 14:17:39+00",6.0,7.0,,77.1,-272,38,25,1005.19,77.6,0
"2021-06-22 14:22:39+00",5.7,6.7,,76.8,-259,30,14,1005.18,77.5,0
"2021-06-22 14:27:39+00",6.8,6.8,,76.7,-300,56,14,1005.3,77.3,0
"2021-06-22 14:32:39+00",6.8,7.8,,76.8,-304,22,19,1005.3,77.1,0
"2021-06-22 14:37:39+00",8.8,9.8,,76.8,-393,13,4,1005.27,76.9,0
"2021-06-22 14:42:39+00",7.9,8.9,,76.8,-357,20,11,1005.17,76.8,0
"2021-06-22 14:47:39+00",7.9,8.9,,76.8,-354,20,12,1005.04,76.7,0
"2021-06-22 14:52:39+00",7.6,8.6,,77,-337,7,23,1005.12,76.9,0
"2021-06-22 14:57:39+00",10.3,11.3,,77.1,-456,47,22,1005.2,77.2,0
"2021-06-22 15:02:39+00",10.8,11.8,,77,-459,176,11,1005.08,77.2,0
"2021-06-22 15:07:39+00",10.1,12.1,,77,-420,215,34,1004.91,77.4,0
"2021-06-22 15:12:39+00",11.0,13.0,,76.7,-436,260,24,1004.92,77.2,0
"2021-06-22 15:17:39+00",17.0,19.0,,76.4,-776,-29,35,1006.04,76.5,0
"2021-06-22 15:22:39+00",12.1,14.1,,75.2,-533,149,12,1005.95,74.4,0
"2021-06-22 15:27:39+00",17.6,19.6,,74.3,-728,322,29,1005.6,73.5,0
"2021-06-22 15:32:39+00",11.4,13.4,,74.2,-431,247,27,1005.41,72.3,0
"2021-06-22 15:37:39+00",6.9,7.9,,74.3,-242,176,10,1005.38,72.2,0
"2021-06-22 15:42:39+00",4.1,5.1,,74.4,-147,84,29,1005.31,72.9,0
"2021-06-22 15:47:39+00",6.7,7.7,,74.6,-202,206,5,1005.1,73.3,0
"2021-06-22 15:52:39+00",6.8,8.8,,74.7,-257,149,41,1005.2,73.5,0
"2021-06-22 15:57:39+00",9.3,10.3,,74.9,-389,168,22,1005.32,73.4,0
"2021-06-22 16:02:39+00",8.3,9.3,,75.1,-339,169,8,1005.25,73.3,0
"2021-06-22 16:07:39+00",10.1,12.1,,75.1,-413,199,31,1005.32,73.5,0
"2021-06-22 16:12:39+00",8.9,9.9,,74.9,-286,284,25,1004.88,73.7,0
"2021-06-22 16:17:39+00",13.5,15.5,,74.7,-605,156,39,1005.38,73.7,0
"2021-06-22 16:22:39+00",11.8,13.8,,74.3,-393,335,31,1005.06,73.3,0
"2021-06-22 16:27:39+00",13.1,14.1,,74.3,-475,344,23,1005.17,73.6,0
"2021-06-22 16:32:39+00",9.8,10.8,,73.9,-352,239,23,1005.03,73.3,0
"2021-06-22 16:37:39+00",9.4,11.4,,73.9,-242,338,21,1004.94,73.5,0
"2021-06-22 16:42:39+00",10.0,11.0,,74.2,-150,411,4,1004.84,73.7,0
"2021-06-22 16:47:39+00",10.8,11.8,,74.2,-211,411,-3,1004.8,73.6,0
"2021-06-22 16:52:39+00",9.3,10.3,,74.4,-206,348,-1,1004.82,73.8,0
"2021-06-22 16:57:39+00",8.9,11.9,,74.7,-161,380,19,1004.93,73.9,0
"2021-06-22 17:02:39+00",9.6,10.6,,74.9,-116,407,10,1004.67,74,0
"2021-06-22 17:07:39+00",9.5,10.5,,75,-74,424,4,1004.65,74,0
"2021-06-22 17:12:39+00",9.9,11.9,,75,1,437,4,1004.5,74,0
"2021-06-22 17:17:39+00",6.8,8.8,,75.1,-287,65,29,1005.35,74,0
"2021-06-22 17:22:39+00",2.3,3.3,,75,26,-66,-5,1005.33,73.8,0
"2021-06-22 17:27:39+00",5.7,6.7,,75,-83,233,-5,1004.82,74,0
"2021-06-22 17:32:39+00",10.1,11.1,,75.1,-320,317,29,1004.84,74.3,0
"2021-06-22 17:37:39+00",27.2,35.2,,70.3,-566,1052,59,1005.19,70.2,0
"2021-06-22 17:42:39+00",26.1,30.1,,68.9,-617,981,40,1005.39,68.2,0
"2021-06-22 17:47:39+00",25.8,30.8,,67.8,-611,940,60,1005.54,67.1,0
"2021-06-22 17:52:39+00",22.2,25.2,,66.8,-507,926,15,1005.78,66.4,0
"2021-06-22 17:57:39+00",20.2,24.2,,66.8,-316,847,37,1005.83,66.1,0
"2021-06-22 18:02:39+00",22.8,26.8,,67.2,-364,957,19,1006,65.9,0
"2021-06-22 18:07:39+00",20.3,25.3,,67.3,-308,833,25,1005.95,65.8,0
"2021-06-22 18:12:39+00",20.3,22.3,,67.3,-364,832,23,1005.96,65.9,0
"2021-06-22 18:17:39+00",18.4,21.4,,67.3,-296,738,30,1006.08,65.9,0
"2021-06-22 18:22:39+00",19.1,22.1,,67.5,-429,719,42,1006.31,65.8,0
"2021-06-22 18:27:39+00",16.8,18.8,,67.3,-350,650,28,1006.52,65.9,0
"2021-06-22 18:32:39+00",17.8,20.8,,67.3,-469,627,24,1006.97,65.9,0
"2021-06-22 18:37:39+00",16.7,20.7,,67,-409,607,50,1007.11,65.6,0
"2021-06-22 18:42:39+00",16.3,20.3,,66.6,-349,631,20,1007.14,65.3,0
"2021-06-22 18:47:39+00",17.1,20.1,,66.4,-361,647,51,1006.87,65,0
"2021-06-22 18:52:39+00",16.4,20.4,,66.2,-229,697,15,1006.63,65,0
"2021-06-22 18:57:39+00",12.8,15.8,,66.2,-194,523,32,1006.52,64.9,0
"2021-06-22 19:02:39+00",15.9,17.9,,66.1,-100,698,16,1006.32,64.8,0
"2021-06-22 19:07:39+00",13.3,17.3,,66.1,-18,573,-3,1006.14,65,0
"2021-06-22 19:12:39+00",16.2,18.2,,66.2,42,707,-6,1006.45,64.8,0
"2021-06-22 19:17:39+00",12.7,15.7,,66.1,-13,571,-18,1006.72,64.9,0
"2021-06-22 19:22:39+00",10.1,12.1,,65.9,78,413,2,1006.79,64.9,0
"2021-06-22 19:27:39+00",10.2,11.2,,65.8,-108,435,0,1007.38,65,0
"2021-06-22 19:32:39+00",9.9,10.9,,65.7,-140,410,12,1007.61,64.8,0
"2021-06-22 19:37:39+00",11.4,13.4,,65.3,-114,494,-6,1007.39,64.6,0
"2021-06-22 19:42:39+00",9.0,11.0,,65.1,8,389,5,1007.2,64.4,0
"2021-06-22 19:47:39+00",11.9,12.9,,65.1,-101,517,-1,1007.39,64.4,0
"2021-06-22 19:52:39+00",11.3,12.3,,65.2,-154,469,-6,1007.59,64.4,0
"2021-06-22 19:57:39+00",11.1,12.1,,65.2,-219,417,8,1007.88,64.3,0
"2021-06-22 20:02:39+00",11.6,12.6,,65.2,-54,506,0,1007.63,64.6,0
"2021-06-22 20:07:39+00",9.6,12.6,,65.1,-96,417,18,1007.73,64.5,0
"2021-06-22 20:12:39+00",12.8,14.8,,64.8,-120,557,4,1007.8,64.4,0
"2021-06-22 20:17:39+00",12.2,13.2,,64.6,29,528,8,1007.44,64.2,0
"2021-06-22 20:22:39+00",13.5,15.5,,64.5,75,578,-14,1007.2,64.1,0
"2021-06-22 20:27:39+00",11.0,13.0,,64.5,-13,480,1,1007.44,64.1,0
"2021-06-22 20:32:39+00",11.4,14.4,,64.6,12,512,-2,1007.25,64.2,0
"2021-06-22 20:37:39+00",14.0,17.0,,64.5,94,590,-9,1006.66,63.7,0
"2021-06-22 20:42:39+00",15.8,17.8,,64.6,134,660,-20,1006.49,63.8,0
"2021-06-22 20:47:39+00",12.3,16.3,,64.6,110,512,5,1006.55,63.7,0
"2021-06-22 20:52:39+00",16.8,18.8,,64.6,194,692,-11,1006.2,63.6,0
"2021-06-22 20:57:39+00",12.3,17.3,,64.8,191,467,14,1006.16,63.6,0
"2021-06-22 21:02:39+00",12.3,18.3,,64.8,196,456,20,1006.33,63.7,0
"2021-06-22 21:07:39+00",13.9,16.9,,64.7,293,560,-2,1006.39,63.6,0
"2021-06-22 21:12:39+00",11.7,12.7,,64.9,258,424,9,1006.7,63.7,0
"2021-06-22 21:17:39+00",9.9,12.9,,64.9,141,406,10,1006.65,64,0
"2021-06-22 21:22:39+00",12.8,14.8,,64.9,150,520,-15,1006.63,63.9,0
"2021-06-22 21:27:39+00",10.7,12.7,,64.9,82,440,-4,1006.94,63.9,0
"2021-06-22 21:32:39+00",8.7,10.7,,64.9,100,355,6,1006.87,64,0
"2021-06-22 21:37:39+00",11.7,13.7,,64.9,8,513,-11,1006.95,63.9,0
"2021-06-22 21:42:39+00",11.7,12.7,,64.9,-195,470,8,1006.93,64,0
"2021-06-22 21:47:39+00",11.2,12.2,,64.6,-292,385,20,1007.07,64,0
"2021-06-22 21:52:39+00",10.2,12.2,,64.4,-164,415,17,1006.72,63.9,0
"2021-06-22 21:57:39+00",10.8,11.8,,64.4,-324,340,29,1007.22,64,0
"2021-06-22 22:02:39+00",12.6,14.6,,64.5,-413,371,35,1007.36,64,0
"2021-06-22 22:07:39+00",13.4,14.4,,64.4,-420,419,47,1007.22,63.9,0
"2021-06-22 22:12:39+00",10.8,13.8,,64.4,-238,421,22,1007.09,64,0
"2021-06-22 22:17:39+00",13.7,15.7,,64.4,-385,452,42,1007.45,63.9,0
"2021-06-22 22:22:39+00",19.8,21.8,,64.4,-590,632,48,1008.05,63.8,0
"2021-06-22 22:27:39+00",17.3,19.3,,64.5,-470,584,-4,1008.14,63.9,0
"2021-06-22 22:32:39+00",11.9,13.9,,64.4,-374,387,16,1008.11,63.9,0
"2021-06-22 22:37:39+00",15.0,16.0,,64.5,-518,432,-5,1008.9,64,0
"2021-06-22 22:42:39+00",12.0,13.0,,64.6,-399,346,-15,1008.92,64,0
"2021-06-22 22:47:39+00",8.7,10.7,,64.8,-284,262,1,1008.94,64.1,0
"2021-06-22 22:52:39+00",9.8,11.8,,64.8,-282,321,-5,1009.13,63.9,0
"2021-06-22 22:57:39+00",8.6,10.6,,64.8,-192,318,-24,1008.95,63.9,0
"2021-06-22 23:02:39+00",11.8,13.8,,65,-329,410,-14,1009.29,64.1,0
"2021-06-22 23:07:39+00",12.1,14.1,,65,-335,413,-1,1009.54,64.3,0
"2021-06-22 23:12:39+00",9.7,10.7,,65.1,-279,326,-8,1009.75,64.5,0
"2021-06-22 23:17:39+00",10.7,11.7,,65.1,-391,268,-11,1010.04,64.5,0
"2021-06-22 23:22:39+00",9.3,10.3,,65.1,-382,195,13,1010.15,64.6,0
"2021-06-22 23:27:39+00",8.3,10.3,,65.1,-325,173,35,1010.26,64.6,0
"2021-06-22 23:32:39+00",8.9,9.9,,65,-360,178,15,1010.53,64.5,0
"2021-06-22 23:37:39+00",10.1,11.1,,65.2,-436,155,19,1010.79,64.4,0
"2021-06-22 23:42:39+00",9.6,10.6,,65.3,-415,148,39,1010.78,64.5,0
"2021-06-22 23:47:39+00",10.4,12.4,,65.3,-397,249,44,1010.66,64.4,0
"2021-06-22 23:52:39+00",10.3,11.3,,65.4,-401,236,26,1010.79,64.5,0
"2021-06-22 23:57:39+00",9.5,10.5,,65.4,-381,198,24,1010.91,64.6,0
